Kuiper-00191

operational
NORAD ID: 67143 Int'l Des: 2025-301 Owner: KUIP Country: US Constellation: kuiper
LEOCIRCULAR

Über Kuiper-00191

Beschreibung wird geladen...

Live-Position

3D-Globus wird geladen...

Nächste Überflüge

Höhenverlauf

Altitude vs Time

uPlot chart will show altitude changes over time

Zweizeiliger Elementsatz

1 67143C 25301L 25350.86850694 .00012738 00000+0 36788-3 0 3509
2 67143 51.8667 105.2154 0006873 108.2818 239.1223 15.35032329 12
Epoch: 16. Dez. 2025 • Age: 65 hours

Aktueller Status

Höhe 457.5 km
Geschwindigkeit 7.64 km/s
Subsatellitenpunkt 14.81°N, 83.41°W
Startdatum 16. Dez. 2025
Alter 2 days
Typ internet

Technische Details

Klassifizierung Payload
Masse 490.00 kg
Trockenmasse 490.00 kg
Gesamtmasse 490.00 kg
Länge 1.80 m
Durchmesser 0.70 m
Spannweite 5.00 m
Form Box + 2 pan
Hersteller KUIP
Bus-Typ Kuiper
Phasenstatus In Orbit
Besitzer/Staat KUIP/US

Große Konstellationen

Loading constellations...